This demonstration page uses our WeatherBlox Daily Observations layout. Learn more.

Hourly Observations for July 16, 2019

Temp ( °F °C ) Dew Point ( °F °C ) Humidity (%) Winds ( mph kmh ) Pressure ( in mb ) Visibility ( mi km ) Precip ( " mm )
12:53 am 00:53 Mostly Clear 72 22.2 71 21.7 97 97 Calm 30.06 1018 10 16.09344 0 0
1:53 am 01:53 Clear 72 22.2 71 21.7 97 97 Calm 30.06 1018 10 16.09344 0 0
2:53 am 02:53 Mostly Cloudy 72 22.2 71 21.7 97 97 Calm 30.06 1018 10 16.09344 0 0
3:53 am 03:53 Partly Cloudy 72 22.2 71 21.7 97 97 Calm 30.03 1017 7 11.265408 0.001 0.001
4:53 am 04:53 Cloudy 72 22.2 71 21.7 97 97 Calm 30.03 1017 8 12.874752 0 0
5:53 am 05:53 Mostly Cloudy 72 22.2 71 21.7 97 97 Calm 30.03 1017 8 12.874752 0 0
6:53 am 06:53 Mostly Sunny 73 22.8 71 21.7 94 94 Calm 30.03 1017 9 14.484096 0 0
7:53 am 07:53 Mostly Cloudy 74 23.3 72 22.2 94 94 S 6 9 30.06 1018 10 16.09344 0 0
8:53 am 08:53 Partly Cloudy 75 23.9 72 22.2 90 90 SSW 6 9 30.06 1018 10 16.09344 0 0
9:53 am 09:53 Mostly Sunny 78 25.6 73 22.8 85 85 S 8 13 30.03 1017 10 16.09344 0 0
10:53 am 10:53 Mostly Sunny 82 27.8 73 22.8 74 74 S 13 20 30.03 1017 10 16.09344 0 0
11:53 am 11:53 Partly Cloudy 83 28.3 74 23.3 74 74 S 9 15 30.03 1017 10 16.09344 0 0
12:53 pm 12:53 Mostly Cloudy 84 28.9 72 22.2 67 67 S 17 28 30 1016 10 16.09344 0 0
1:53 pm 13:53 Partly Cloudy 88 31.1 73 22.8 61 61 SSW 16 26 29.97 1015 10 16.09344 0 0
2:53 pm 14:53 Mostly Cloudy 87 30.6 71 21.7 59 59 S 18 30 29.97 1015 10 16.09344 0 0
3:53 pm 15:53 Partly Cloudy 86 30 70 21.1 59 59 SSW 16 26 29.94 1014 10 16.09344 0 0
4:53 pm 16:53 Mostly Sunny 86 30 70 21.1 59 59 SW 13 20 29.91 1013 10 16.09344 0.001 0.001
5:53 pm 17:53 Sunny 87 30.6 73 22.8 63 63 SSW 10 17 29.91 1013 10 16.09344 0 0
6:53 pm 18:53 Partly Cloudy 85 29.4 72 22.2 65 65 S 7 11 29.91 1013 10 16.09344 0 0
7:53 pm 19:53 Mostly Sunny 83 28.3 71 21.7 67 67 SSW 7 11 29.91 1013 10 16.09344 0 0
8:53 pm 20:53 Mostly Cloudy 81 27.2 72 22.2 74 74 S 3 6 29.91 1013 10 16.09344 0 0
9:53 pm 21:53 Cloudy 81 27.2 71 21.7 72 72 SW 5 7 29.91 1013 10 16.09344 0 0
10:53 pm 22:53 Cloudy with Heavy Rain 75 23.9 73 22.8 94 94 SW 14 22 29.94 1014 3 4.828032 0.21 5.334
11:53 pm 23:53 Mostly Clear with Light Rain 76 24.4 73 22.8 91 91 SSE 3 6 29.94 1014 10 16.09344 0.04 1.016

Powered by AerisWeather